Info for pilots

Image

Airfield Info:

EBUL
N51 08.7 - E003 28.6
ELEV 95' / 29m
RWY 07 / 25
799m * 45m (CIV) - 2980m (MIL)
Ursel Radio 135,125
Tel Aero Club Brugge : +32(0)9 374 25 75
Tel Vliegclub Ursel : +32(0)9 374 12 90

Operational Hours
FRI: 1300 - SS+30 MIN
SAT, SUN and HOL: TKOF and LDG: 0900 - SS+30 MIN
After 1900 to SS+30 MIN: only LDG allowed (PN)

Local Traffic Regulations
The use of the AD is subject to PPR from the OPR;
AD given in concession to the CIV club outside MIL ACT;
Solo training flights can only be performed after two reconnaissance flights with instructor. The solo training flight must be performed within six weeks after the first reconnaissance flight;
Jet aircraft operations not allowed.
Obstacles: trees between 10M AGL and 22M AGL, caution when crosswind:
North of the RWY, 75M from CL, along the whole length of the RWY;
South of the RWY, 75M from CL, and at THR RWY 25 from THR RWY 07 to 140M east of THR RWY 07

Image

Image

Watch out!

Flight Procedures
RWY 07 and 25 left hand circuit, 1.200 FT

Taxi procedures:
RWY 07 (TKOF):
taxi on the north side of the RWY to the HLDG position of RWY 07

RWY 07 (LDG):
after landing roll out to the second intersection (THR RWY 25), turn left, turn left again, taxi via the TWY to the first intersection, turn left, cross the RWY (check for landing ACFT), taxi on the south side of the RWY to the AD reporting office

RWY 25 (TKOF):
taxi on the north side of the first intersection, turn left, next turn right, taxi via the TWY to the second intersection, turn right, taxi to the HLDG of RWY 25

RWY 25 (LDG):
after landing roll out to the end of the RWY, taxi on the south side of the RWY to the AD reporting office.

Image

Current Metars - Auto refresh

EBOS - Oostende
2017/10/23 18:20 EBOS 231820Z 19008KT 8000 FEW003 BKN005 BKN007 13/11 Q1019 TEMPO 2500 DZRA BKN003


EBAW - Antwerpen
2017/10/23 18:20 EBAW 231820Z 20006KT 6000 BKN006 13/11 Q1020 TEMPO 2000 DZ BKN003


EBBR - Brussel
2017/10/23 18:20 EBBR 231820Z 21008KT 9999 SCT010 BKN012 13/11 Q1021 NOSIG

Source : NOAA.GOV

Current TAFs - Auto refresh

EBOS - Oostende
2017/10/23 18:27 TAF EBOS 231710Z 2318/2424 20009KT 4500 -RADZ SCT005 BKN007 TEMPO 2318/2409 2500 DZRA BKN003 BECMG 2409/2411 23015G25KT 9999 SCT015 BKN025

EBAW - Antwerpen
2017/10/23 18:27 TAF TAF EBAW 231710Z 2318/2403 22008KT 4500 -RADZ BR SCT004 BKN006 TEMPO 2318/2403 2000 DZRA BKN003

EBBR - Brussel
2017/10/23 18:27 TAF TAF EBBR 231710Z 2318/2424 22008KT 4500 -RADZ BR SCT006 BKN008 TEMPO 2318/2408 2000 DZRA BKN003 BECMG 2411/2413 9999 BKN025

Source : NOAA.GOV
Image

Webcam

Direction runway 07 :


Image

Sorry, PPR Requests are offline for the moment